SCP
0 0 0 0 -0 -0 0 0 0 0 0 0 0 0 0 0 0 0 0 0 0 0 0 0 0 0 0 0 0 0 0 0 0 0 0 0 0 0
0 0 0 0 0 -0 -0 0 0 0 0 0 0 0 0 0 0 0 0 0 0 0 0 0 0 0 0 0 0 0 0 0 0 0 0 0 0 0
0 0 0 0 0 0 0 0 0 0 0 0 0 0 0 0 0 0 0 0 0 0 0 0 0 0 0 0 0 0 0 0 0 0 0 0 0 0
0 0 0 0 0 0 -0 0 0 0 0 0 0 0 0 0 0 0 0 0 0 0 0 0 0 0 0 0 0 0 0 0 0 0 0 0 0 0
0 0 0 0 0 0 0 0 0 0 0 0 0 0 0 0 0 0 0 0 0 0 0 0 0 0 0 0 0 0 0 0 0 0 0 0 0 0
0 0 0 0 0 0 0 0 0 0 0 0 0 0 0 0 0 0 0 0 0 0 0 0 0 0 0 0 0 0 0 0 0 0 0 0 0 0
0 0 0 0 0 0 0 0 0 0 0 0 0 0 0 0 0 0 0 0 0 0 0 0 0 0 0 0 0 0 0 0 0 0 0 0 0 0
0 0 0 0 0 0 0 0 0 0 0 0 0 0 0 0 0 0 0 0 0 0 0 0 0 0 0 0 0 0 0 0 0 0 0 0 0 0
0 0 0 0 0 0 0 0 0 0 0 0 0 0 0 0 0 0 0 0 0 0 0 0 0 0 0 0 0 0 0 0 0 0 0 0 0 0
0 0 0 0 0 0 0 0 0 0 0 0 0 0 0 0 0 0 0 0 0 0 0 0 0 0 0 0 0 0 0 0 0 0 0 0 0 0
0 0 0 0 0 0 0 0 0 0 0 0 0 0 0 0 0 0 0 0 0 0 0 0 0 0 0 0 0 0 0 0 0 0 0 0 0 0
0 0 0 0 0 0 0 0 0 0 0 0 0 0 0 0 0 0 0 0 0 0 0 0 0 0 0 0 0 0 0 0 0 0 0 0 0 0
0 0 0 0 0 0 0 0 0 0 0 0 0 0 0 0 0 0 0 0 0 0 0 0 0 0 0 0 0 0 0 0 0 0 0 0 0 0
0 0 0 0 0 0 0 0 0 0 0 0 0 0 0 0 0 0 0 0 0 0 0 0 0 0 0 0 0 0 0 0 0 0 0 0 0 0
0 0 0 0 0 0 0 0 0 0 0 0 0 0 0 0 0 0 0 0 0 0 0 0 0 0 0 0 0 0 0 0 0 0 0 0 0 0
0 0 0 0 0 0 0 0 0 0 0 0 0 0 0 0 0 0 0 0 0 0 0 0 0 0 0 0 0 0 0 0 0 0 0 0 0 0
0 0 0 0 0 0 0 0 0 0 0 0 0 0 0 0 0 0 0 0 0 0 0 0 0 0 0 0 0 0 0 0 0 0 0 0 0 0
0 0 0 0 0 0 0 0 0 0 0 0 0 0 0 0 0 0 0 0 0 0 0 0 0 0 0 0 0 0 0 0 0 0 0 0 0 0
0 0 0 0 0 0 0 0 0 0 0 0 0 0 0 0 0 0 0 0 0 0 0 0 0 0 0 0 0 0 0 0 0 0 0 0 0 0
0 0 0 0 0 0 0 0 0 0 0 0 0 0 0 0 0 0 0 0 0 0 0 0 0 0 0 0 0 0 0 0 0 0 0 0 0 0
0 0 0 0 0 0 0 0 0 0 0 0 0 0 0 0 0 0 0 0 0 0 0 0 0 0 0 0 0 0 0 0 0 -0 -0 -0 0 0
0 0 0 0 0 0 0 0 0 0 0 0 0 0 0 0 0 0 0 0 0 0 0 0 0 0 0 0 0 0 0 0 0 -0 0 0 0 0
0 0 0 0 0 0 0 0 0 0 0 0 0 0 0 0 0 0 0 0 0 0 0 0 0 0 0 0 0 0 0 0 0 0 0 0 0 0
Wind_Speed_500mb
22 29 34 51 53 56 61 57 59 51 45 40 39 34 29 26 27 32 30 27 20 15 11 7 4 15 24 8 22 22 25 26 29 32 31 27 21 17
30 37 49 56 58 63 64 42 29 43 28 40 39 33 25 24 29 30 24 21 16 7 3 6 12 8 6 12 19 27 31 29 28 27 27 23 21 21
35 39 44 47 50 60 42 21 17 26 16 43 38 35 35 31 29 25 22 16 10 10 11 12 12 8 5 5 17 22 23 23 22 23 23 23 23 22
36 41 48 52 47 44 26 22 14 4 19 46 43 38 33 32 28 23 19 13 10 9 9 7 8 6 6 9 9 14 18 21 23 22 23 25 26 25
33 43 51 57 50 45 25 21 17 9 22 37 42 38 35 32 29 25 14 10 10 6 5 2 3 5 8 11 15 20 20 19 22 25 28 30 31 30
37 47 51 55 53 46 27 18 13 15 22 34 37 37 33 29 29 25 19 10 9 7 6 4 8 9 11 14 18 23 23 23 23 25 27 31 34 33
43 49 49 51 52 39 18 15 12 15 20 29 31 33 31 28 26 23 19 14 14 19 19 19 21 22 25 26 26 27 28 29 28 29 33 30 31 34
49 51 52 51 51 39 23 20 15 14 21 21 22 27 27 21 20 20 22 23 26 25 28 32 33 31 33 33 33 32 31 31 33 32 35 32 32 33
54 53 51 53 53 44 36 28 22 20 22 18 16 16 18 21 19 23 22 23 24 29 32 32 31 34 34 31 30 30 29 29 33 34 39 36 35 34
55 55 56 56 57 52 46 39 31 25 25 22 23 24 20 21 23 25 26 28 28 29 29 34 30 33 32 33 35 33 27 29 33 32 38 34 38 37
57 54 55 56 54 51 50 46 39 34 31 27 23 22 20 22 23 21 21 22 20 24 29 32 34 27 24 29 30 26 25 22 24 33 33 38 38 36
53 53 51 49 49 50 50 48 44 38 36 32 31 29 25 25 24 24 25 25 19 20 19 22 23 22 15 14 13 8 10 25 31 33 33 37 35 35
58 60 56 56 53 50 48 46 42 40 38 36 33 28 24 22 25 26 24 25 24 23 26 26 24 25 22 22 23 26 33 31 32 36 35 34 34 36
55 57 54 54 53 50 48 45 41 43 43 39 38 34 33 23 24 24 25 21 24 25 24 25 25 25 25 30 30 29 28 32 30 33 33 30 36 38
45 47 48 48 47 46 45 44 47 45 45 42 40 36 27 22 26 27 22 24 25 25 25 26 28 28 27 28 29 34 37 32 33 30 38 42 40 41
49 48 47 48 48 46 46 48 46 43 40 37 33 29 29 29 27 26 26 26 25 23 29 30 30 31 29 31 32 37 30 28 36 41 35 38 39 39
55 56 57 56 55 53 51 48 45 45 43 36 30 33 34 32 27 30 28 26 27 23 25 25 28 27 30 33 28 25 24 27 31 34 34 29 26 30
61 64 66 66 63 60 56 52 47 42 37 33 36 37 34 31 33 32 26 21 26 29 26 25 26 23 23 23 21 18 19 21 22 26 27 25 24 32
66 66 67 66 66 63 61 56 52 44 38 39 39 36 37 36 32 32 34 29 25 28 27 22 20 20 17 14 15 11 15 17 20 25 31 36 35 32
74 72 68 64 61 62 64 61 56 51 47 46 45 41 39 37 35 34 30 32 32 30 21 13 13 13 13 8 7 13 18 29 35 30 32 32 28 24
76 75 74 67 60 58 59 63 62 59 51 49 47 43 41 41 37 29 22 26 21 18 19 15 15 14 13 13 15 15 23 27 31 38 42 39 36 31
76 80 76 65 61 60 59 61 64 65 59 56 51 48 48 44 40 33 25 25 21 21 22 18 16 14 12 14 15 18 22 25 31 34 34 34 34 29
79 82 74 63 61 59 61 66 67 68 63 58 53 51 50 46 44 43 34 31 28 27 27 23 20 18 15 20 25 27 29 29 23 17 17 24 24 27
Wind_Direction_500mb
150 159 148 137 137 161 151 143 141 137 132 137 133 136 134 134 128 139 132 135 133 120 108 108 156 216 201 219 337 343 346 340 337 342 348 355 352 340
159 158 159 153 144 148 153 156 160 157 141 157 149 150 146 141 138 145 138 141 157 168 150 122 135 186 295 329 318 318 326 330 336 343 348 350 350 348
166 166 173 175 166 170 167 175 150 182 185 167 162 153 148 144 144 151 150 162 169 144 127 133 147 155 177 225 300 327 339 342 343 346 347 346 343 336
174 171 175 179 174 171 173 164 159 197 202 172 166 163 160 154 152 150 141 135 134 114 112 121 148 177 272 307 333 349 5 3 4 355 349 343 337 335
182 175 174 181 179 173 152 167 182 152 173 181 172 169 167 166 162 153 139 155 153 148 92 39 5 322 316 320 329 346 349 355 360 1 359 352 343 333
183 176 176 181 184 181 179 162 161 162 163 182 180 176 176 179 180 180 182 176 204 225 243 284 301 302 311 317 322 323 329 335 340 346 344 346 345 340
183 178 179 182 182 179 169 174 173 167 166 176 185 185 185 191 204 211 217 221 247 253 257 271 282 291 295 302 309 308 311 315 313 319 330 330 336 343
189 184 185 183 182 188 184 179 165 174 183 179 187 200 206 207 217 233 244 262 265 279 286 286 286 291 297 297 296 305 303 310 315 319 313 318 322 333
193 190 187 188 190 193 201 195 190 176 167 186 198 208 221 231 240 248 260 276 275 283 285 287 287 288 291 296 299 297 299 303 316 318 318 312 310 313
196 195 196 196 198 201 205 206 202 199 196 195 202 205 218 225 228 242 252 259 263 270 281 293 298 295 300 301 288 296 293 301 315 323 318 313 312 305
195 196 199 201 200 198 203 206 209 210 208 212 211 223 229 245 243 259 266 267 277 283 282 287 301 305 306 304 294 278 297 292 313 320 319 316 311 309
192 196 198 200 199 199 205 210 212 214 215 213 217 224 243 236 236 260 256 247 267 291 301 299 302 311 324 324 322 298 301 311 312 318 315 318 312 308
195 197 199 201 206 209 214 218 222 221 222 222 223 226 210 223 250 248 254 265 266 268 280 289 295 299 301 303 296 284 295 305 306 308 313 312 315 313
200 202 203 204 208 213 217 219 220 218 220 220 226 225 221 221 249 249 251 276 273 283 288 293 295 297 298 311 303 307 299 301 308 308 312 310 310 309
205 207 207 209 210 213 217 218 218 217 222 225 229 227 230 233 241 243 258 271 280 284 284 291 286 281 282 294 301 292 304 308 309 300 311 314 309 310
204 207 209 210 210 210 213 215 219 223 228 232 237 243 233 239 249 250 251 266 271 287 283 282 285 283 285 283 291 301 303 306 305 305 312 320 317 320
205 208 208 206 208 210 212 214 216 222 229 233 227 231 232 232 238 253 251 257 271 274 273 281 282 287 295 292 288 297 297 300 300 305 310 317 318 314
210 214 213 213 213 214 216 220 224 227 224 229 227 228 230 234 241 247 253 267 271 270 260 279 286 283 290 293 295 298 299 306 308 308 313 323 330 324
223 225 223 221 220 220 221 224 228 229 231 232 229 232 233 237 244 250 254 256 267 268 264 273 280 284 277 282 294 304 310 305 312 317 317 322 328 336
227 229 231 231 228 226 224 225 226 226 227 231 236 231 235 241 253 254 253 263 263 257 251 249 266 275 280 283 295 309 313 314 318 322 323 320 322 327
226 230 232 234 233 232 229 227 226 221 225 231 234 232 239 248 249 239 253 257 231 230 231 247 242 249 255 271 286 300 310 313 320 325 325 323 325 329
231 236 237 234 234 234 232 229 225 220 222 226 232 234 239 244 241 223 224 226 228 227 235 240 242 248 262 286 294 300 300 308 315 319 321 327 328 323
228 234 238 238 235 233 233 230 227 222 220 228 231 235 242 243 228 215 216 219 230 239 244 233 235 243 266 283 289 292 298 307 317 326 317 329 336 330
Wind_Speed_850mb
22 29 34 51 53 56 61 57 59 51 45 40 39 34 29 26 27 32 30 27 20 15 11 7 4 15 24 8 22 22 25 26 29 32 31 27 21 17
30 37 49 56 58 63 64 42 29 43 28 40 39 33 25 24 29 30 24 21 16 7 3 6 12 8 6 12 19 27 31 29 28 27 27 23 21 21
35 39 44 47 50 60 42 21 17 26 16 43 38 35 35 31 29 25 22 16 10 10 11 12 12 8 5 5 17 22 23 23 22 23 23 23 23 22
36 41 48 52 47 44 26 22 14 4 19 46 43 38 33 32 28 23 19 13 10 9 9 7 8 6 6 9 9 14 18 21 23 22 23 25 26 25
33 43 51 57 50 45 25 21 17 9 22 37 42 38 35 32 29 25 14 10 10 6 5 2 3 5 8 11 15 20 20 19 22 25 28 30 31 30
37 47 51 55 53 46 27 18 13 15 22 34 37 37 33 29 29 25 19 10 9 7 6 4 8 9 11 14 18 23 23 23 23 25 27 31 34 33
43 49 49 51 52 39 18 15 12 15 20 29 31 33 31 28 26 23 19 14 14 19 19 19 21 22 25 26 26 27 28 29 28 29 33 30 31 34
49 51 52 51 51 39 23 20 15 14 21 21 22 27 27 21 20 20 22 23 26 25 28 32 33 31 33 33 33 32 31 31 33 32 35 32 32 33
54 53 51 53 53 44 36 28 22 20 22 18 16 16 18 21 19 23 22 23 24 29 32 32 31 34 34 31 30 30 29 29 33 34 39 36 35 34
55 55 56 56 57 52 46 39 31 25 25 22 23 24 20 21 23 25 26 28 28 29 29 34 30 33 32 33 35 33 27 29 33 32 38 34 38 37
57 54 55 56 54 51 50 46 39 34 31 27 23 22 20 22 23 21 21 22 20 24 29 32 34 27 24 29 30 26 25 22 24 33 33 38 38 36
53 53 51 49 49 50 50 48 44 38 36 32 31 29 25 25 24 24 25 25 19 20 19 22 23 22 15 14 13 8 10 25 31 33 33 37 35 35
58 60 56 56 53 50 48 46 42 40 38 36 33 28 24 22 25 26 24 25 24 23 26 26 24 25 22 22 23 26 33 31 32 36 35 34 34 36
55 57 54 54 53 50 48 45 41 43 43 39 38 34 33 23 24 24 25 21 24 25 24 25 25 25 25 30 30 29 28 32 30 33 33 30 36 38
45 47 48 48 47 46 45 44 47 45 45 42 40 36 27 22 26 27 22 24 25 25 25 26 28 28 27 28 29 34 37 32 33 30 38 42 40 41
49 48 47 48 48 46 46 48 46 43 40 37 33 29 29 29 27 26 26 26 25 23 29 30 30 31 29 31 32 37 30 28 36 41 35 38 39 39
55 56 57 56 55 53 51 48 45 45 43 36 30 33 34 32 27 30 28 26 27 23 25 25 28 27 30 33 28 25 24 27 31 34 34 29 26 30
61 64 66 66 63 60 56 52 47 42 37 33 36 37 34 31 33 32 26 21 26 29 26 25 26 23 23 23 21 18 19 21 22 26 27 25 24 32
66 66 67 66 66 63 61 56 52 44 38 39 39 36 37 36 32 32 34 29 25 28 27 22 20 20 17 14 15 11 15 17 20 25 31 36 35 32
74 72 68 64 61 62 64 61 56 51 47 46 45 41 39 37 35 34 30 32 32 30 21 13 13 13 13 8 7 13 18 29 35 30 32 32 28 24
76 75 74 67 60 58 59 63 62 59 51 49 47 43 41 41 37 29 22 26 21 18 19 15 15 14 13 13 15 15 23 27 31 38 42 39 36 31
76 80 76 65 61 60 59 61 64 65 59 56 51 48 48 44 40 33 25 25 21 21 22 18 16 14 12 14 15 18 22 25 31 34 34 34 34 29
79 82 74 63 61 59 61 66 67 68 63 58 53 51 50 46 44 43 34 31 28 27 27 23 20 18 15 20 25 27 29 29 23 17 17 24 24 27
Wind_Direction_850mb
150 159 148 137 137 161 151 143 141 137 132 137 133 136 134 134 128 139 132 135 133 120 108 108 156 216 201 219 337 343 346 340 337 342 348 355 352 340
159 158 159 153 144 148 153 156 160 157 141 157 149 150 146 141 138 145 138 141 157 168 150 122 135 186 295 329 318 318 326 330 336 343 348 350 350 348
166 166 173 175 166 170 167 175 150 182 185 167 162 153 148 144 144 151 150 162 169 144 127 133 147 155 177 225 300 327 339 342 343 346 347 346 343 336
174 171 175 179 174 171 173 164 159 197 202 172 166 163 160 154 152 150 141 135 134 114 112 121 148 177 272 307 333 349 5 3 4 355 349 343 337 335
182 175 174 181 179 173 152 167 182 152 173 181 172 169 167 166 162 153 139 155 153 148 92 39 5 322 316 320 329 346 349 355 360 1 359 352 343 333
183 176 176 181 184 181 179 162 161 162 163 182 180 176 176 179 180 180 182 176 204 225 243 284 301 302 311 317 322 323 329 335 340 346 344 346 345 340
183 178 179 182 182 179 169 174 173 167 166 176 185 185 185 191 204 211 217 221 247 253 257 271 282 291 295 302 309 308 311 315 313 319 330 330 336 343
189 184 185 183 182 188 184 179 165 174 183 179 187 200 206 207 217 233 244 262 265 279 286 286 286 291 297 297 296 305 303 310 315 319 313 318 322 333
193 190 187 188 190 193 201 195 190 176 167 186 198 208 221 231 240 248 260 276 275 283 285 287 287 288 291 296 299 297 299 303 316 318 318 312 310 313
196 195 196 196 198 201 205 206 202 199 196 195 202 205 218 225 228 242 252 259 263 270 281 293 298 295 300 301 288 296 293 301 315 323 318 313 312 305
195 196 199 201 200 198 203 206 209 210 208 212 211 223 229 245 243 259 266 267 277 283 282 287 301 305 306 304 294 278 297 292 313 320 319 316 311 309
192 196 198 200 199 199 205 210 212 214 215 213 217 224 243 236 236 260 256 247 267 291 301 299 302 311 324 324 322 298 301 311 312 318 315 318 312 308
195 197 199 201 206 209 214 218 222 221 222 222 223 226 210 223 250 248 254 265 266 268 280 289 295 299 301 303 296 284 295 305 306 308 313 312 315 313
200 202 203 204 208 213 217 219 220 218 220 220 226 225 221 221 249 249 251 276 273 283 288 293 295 297 298 311 303 307 299 301 308 308 312 310 310 309
205 207 207 209 210 213 217 218 218 217 222 225 229 227 230 233 241 243 258 271 280 284 284 291 286 281 282 294 301 292 304 308 309 300 311 314 309 310
204 207 209 210 210 210 213 215 219 223 228 232 237 243 233 239 249 250 251 266 271 287 283 282 285 283 285 283 291 301 303 306 305 305 312 320 317 320
205 208 208 206 208 210 212 214 216 222 229 233 227 231 232 232 238 253 251 257 271 274 273 281 282 287 295 292 288 297 297 300 300 305 310 317 318 314
210 214 213 213 213 214 216 220 224 227 224 229 227 228 230 234 241 247 253 267 271 270 260 279 286 283 290 293 295 298 299 306 308 308 313 323 330 324
223 225 223 221 220 220 221 224 228 229 231 232 229 232 233 237 244 250 254 256 267 268 264 273 280 284 277 282 294 304 310 305 312 317 317 322 328 336
227 229 231 231 228 226 224 225 226 226 227 231 236 231 235 241 253 254 253 263 263 257 251 249 266 275 280 283 295 309 313 314 318 322 323 320 322 327
226 230 232 234 233 232 229 227 226 221 225 231 234 232 239 248 249 239 253 257 231 230 231 247 242 249 255 271 286 300 310 313 320 325 325 323 325 329
231 236 237 234 234 234 232 229 225 220 222 226 232 234 239 244 241 223 224 226 228 227 235 240 242 248 262 286 294 300 300 308 315 319 321 327 328 323
228 234 238 238 235 233 233 230 227 222 220 228 231 235 242 243 228 215 216 219 230 239 244 233 235 243 266 283 289 292 298 307 317 326 317 329 336 330